Home > Weather > Managua > Past weeks

Flag for Nicaragua Past Weather in Managua, Nicaragua — Yesterday and Last 2 Weeks

Now
91 °F

Scattered clouds.


Feels Like: 99 °F
Forecast: 78 / 95 °F
Wind: 5 mph from South

Location: Managua A. C. Sandino

Current Time: May 27, 2016 at 6:21:05 PM

Latest Report: May 27, 2016 at 6:00 PM


Visibility: N/A

Pressure: 29.71 "Hg

Humidity: 52%

Dew Point: 72 °F

Location of ManaguaLocation

Past Weather in Managua — Graph

°F

Managua Temperature Yesterday

Maximum temperature yesterday: 99 °F (at 3:00 PM)
Minimum temperature yesterday: 81 °F (at 6:00 AM)
Average temperature yesterday: 90 °F

High & Low Weather Summary for the Past Weeks

 TemperatureHumidityPressure
High99 °F (May 25, 2:00 PM)94% (May 18, 7:00 PM)29.92 "Hg (May 18, 7:00 PM)
Low75 °F (May 18, 5:00 AM)39% (May 14, 12:00 PM)29.68 "Hg (May 27, 3:00 PM)
Average87 °F64%29.82 "Hg
* Reported May 12 5:00 PM — May 27 5:00 PM, Managua, Weather by CustomWeather, © 2016

Note: Actual official high and low records may vary slightly from our data, if they occured in-between our weather recording intervals... More about our weather records

Advertising

Managua Weather History for the Previous 24 Hours

Scroll right to see more
 ConditionsComfort  
Time TempWeatherWind HumidityBarometerVisibility
5:00 PM
Fri, May 27
95 °FScattered clouds.5 mph50%29.71 "HgN/A
4:00 PM97 °FScattered clouds.5 mph44%29.68 "HgN/A
3:00 PM97 °FScattered clouds.7 mph44%29.68 "HgN/A
2:00 PM97 °FScattered clouds.9 mph42%29.74 "HgN/A
1:00 PM95 °FScattered clouds.7 mph44%29.74 "HgN/A
12:00 PM93 °FScattered clouds.7 mph49%29.77 "HgN/A
11:00 AM91 °FScattered clouds.9 mph49%29.80 "HgN/A
10:00 AM91 °FScattered clouds.14 mph52%29.80 "HgN/A
9:00 AM88 °FScattered clouds.12 mph59%29.83 "HgN/A
8:00 AM86 °FScattered clouds.12 mph62%29.83 "HgN/A
7:00 AM82 °FPartly sunny.5 mph74%29.83 "HgN/A
6:00 AM81 °FPartly sunny.5 mph79%29.80 "HgN/A
5:00 AM81 °FPassing clouds.7 mph79%29.80 "HgN/A
4:00 AM81 °FPassing clouds.5 mph74%29.77 "HgN/A
3:00 AM86 °FPassing clouds.16 mph70%29.83 "HgN/A
1:00 AM82 °FPassing clouds.7 mph79%29.77 "HgN/A
12:00 AM84 °FPassing clouds.9 mph74%29.80 "HgN/A
11:00 PM
Thu, May 26
84 °FPassing clouds.12 mph74%29.83 "HgN/A
10:00 PM86 °FPassing clouds.16 mph70%29.83 "HgN/A
9:00 PM86 °FPassing clouds.14 mph75%29.80 "HgN/A
8:00 PM88 °FPassing clouds.12 mph66%29.77 "HgN/A
7:00 PM88 °FPassing clouds.9 mph66%29.77 "HgN/A
6:00 PM93 °FScattered clouds.14 mph49%29.71 "HgN/A
Weather by CustomWeather, © 2016

See weather overviewHow to use our weather pages